User: anonymous   Login
Location: Unspecified
(0.0000°N, 0.0000°E)
Time: 23:34:27
(UTC+00:00)
Language:

ZACube-1 - Orbit

View from above orbital plane
View from above orbital plane
View from above satellite
View from above satellite

Ground track
Ground track

The orbit data is extracted from the following two-line orbital elements,

1 39417U 13066B   19229.02068887  .00000107  00000-0  19872-4 0  9991
2 39417  97.5621 239.1884 0058407 198.0349 161.8793 14.81135165309821
Epoch (UTC): 17 August 2019 00:29:47
Eccentricity: 0.0058407
inclination: 97.5621°
perigee height: 585 km
apogee height: 666 km
right ascension of ascending node: 239.1884°
argument of perigee: 198.0349°
revolutions per day: 14.81135165
mean anomaly at epoch: 161.8793°
orbit number at epoch: 30982

The dashed part of the orbit path shows where the satellite is in the earth's shadow,  

DLR